Location: Home
(42.5358°N, 72.7383°W)
Time: 00:51:55
(UTC-05:00)

Vanguard 1 - Pass Details

Date: 06 December 2021
Orbit: 652 x 3830 km, 34.2° (Epoch: 21 January)

Event Time Altitude Azimuth Distance (km) Brightness Sun altitude
Rises 20:11:46 0° 194° (SSW) 6,086 14.2 -42.3°
Reaches altitude 10° 20:16:20 10° 183° (S) 5,523 13.8 -43.1°
Enters shadow 20:21:22 20° 167° (SSE) 5,146 13.4 -44.0°
Maximum altitude 20:30:07 27° 133° (SE) 5,167 - -45.6°
Drops below altitude 10° 20:47:10 10° 85° (E) 6,937 - -48.7°
Sets 20:53:47 0° 76° (ENE) 7,881 - -49.8°
